Find Starlink 31297

NORAD ID: 59158 Int'l Des: 2024-044 Owner: SPXS Country: US Constellation: starlink operational
LEOCIRCULAR

当前视图

正在加载3D地球...

About Starlink 31297

Starlink 31297 (NORAD 59158) is a starlink constellation satellite (v2 mini) launched Mar 4, 2024 by SPXS of US. It operates in LEO, CIRCULAR orbit with a mass of 730.00 kg.

关于 Starlink 31297

正在加载描述...

即将过境

Passes for default location (London). Set your location on the main map for personalized predictions.

高度历史

Loading altitude history...

两行轨道根数

1 59158U 24044G 26166.57079622 .00000462 00000-0 26344-4 0 9996
2 59158 43.0050 274.3877 0002208 282.8349 77.2256 15.27577412128560
Epoch: Jun 15, 2026 • Age: 7 hours

当前状态

高度 488.2 km
速度 7.62 km/s
星下点 -23.75°S, 97.24°W
发射日期 Mar 4, 2024
运行时间 2.2 years
类型 internet

技术详情

分类 Payload
质量 730.00 kg
干质量 700.00 kg
总质量 730.00 kg
长度 0.30 m
直径 4.10 m
跨度 29.00 m
形状 Box + pan
制造商 SPXS
平台类型 Starlink V2M
阶段状态 In Orbit
所有者/国家 SPXS/US

Most Searched